Flag for U.S.A. Weather past 2 weeks in Hereford, Texas, U.S.A.

Now
61 °F

Cool.


Feels Like: 61 °F
Forecast: 58 / 70 °F
Wind: 13 mph from Southeast

Location: Clovis Municipal

Current Time: Sep 22, 2014 at 9:48:13 AM

Latest Report: Sep 22, 2014 at 9:35 AM


Visibility: 0 mi

Pressure: 30.36 "Hg

Humidity: 94%

Dew point: 59 °F

Location of HerefordLocation

Historic Weather in Hereford — Graph

°F

Hereford temperature yesterday

Maximum temperature yesterday: 81 °F (at 1:35 PM)
Minimum temperature yesterday: 64 °F (at 2:35 AM)
Average temperature yesterday: 69 °F

Past Weeks' High & Low Weather Summary

 TemperatureHumidityPressure
High91 °F (Sep 9, 3:15 PM)100% (Sep 8, 4:35 AM)30.45 "Hg (Sep 8, 4:35 AM)
Low45 °F (Sep 12, 11:35 PM)33% (Sep 9, 4:55 PM)29.88 "Hg (Sep 9, 6:15 PM)
Average65 °F80%30.18 "Hg
* Reported Sep 7 8:15 AM — Sep 22 8:55 AM, Hereford, Weather by CustomWeather, © 2014

Note: Actual official high and low records may vary slightly from our data, if they occured in-between our weather recording intervals... More about our weather records

Advertising

Hereford weather history for previous 24 hours

 ConditionsComfort  
Time TempWeatherWind HumidityBarometerVisibility
8:55 AM
Sep 22
61 °FCool.15 mph94%30.35 "Hg1 mi
8:35 AM61 °FCool.13 mph94%30.35 "Hg1 mi
8:15 AM61 °FCool.8 mph94%30.35 "Hg1 mi
7:55 AM61 °FCool.9 mph94%30.35 "Hg1 mi
7:35 AM61 °FCool.7 mph94%30.35 "Hg1 mi
7:15 AM61 °FCool.8 mph88%30.35 "Hg2 mi
6:55 AM61 °FCool.9 mph88%30.34 "Hg7 mi
6:35 AM61 °FCool.10 mph88%30.34 "Hg10 mi
5:55 AM61 °FCool.7 mph88%30.34 "Hg10 mi
5:35 AM61 °FCool.9 mph88%30.34 "Hg10 mi
5:15 AM63 °FMild.12 mph83%30.33 "Hg10 mi
4:55 AM63 °FMild.12 mph83%30.33 "Hg10 mi
4:35 AM63 °FMild.13 mph94%30.33 "Hg10 mi
4:15 AM63 °FMild.10 mph94%30.33 "Hg10 mi
3:55 AM63 °FMild.10 mph94%30.33 "Hg10 mi
3:35 AM63 °FMild.10 mph94%30.34 "Hg10 mi
3:15 AM63 °FMild.9 mph94%30.34 "Hg10 mi
2:55 AM63 °FMild.9 mph94%30.35 "Hg10 mi
2:35 AM63 °FMild.8 mph94%30.35 "Hg10 mi
2:15 AM64 °FMild.12 mph88%30.35 "Hg10 mi
1:55 AM64 °FMild.12 mph88%30.34 "Hg10 mi
1:35 AM64 °FMild.8 mph88%30.33 "Hg10 mi
12:55 AM64 °FMild.6 mph88%30.33 "Hg10 mi
12:35 AM64 °FMild.6 mph94%30.34 "Hg10 mi
12:15 AM64 °FMild.6 mph94%30.34 "Hg5 mi
11:55 PM
Sep 21
64 °FMild.5 mph94%30.34 "Hg10 mi
11:35 PM64 °FMild.7 mph94%30.34 "Hg10 mi
11:15 PM64 °FMild.9 mph94%30.35 "Hg10 mi
10:55 PM64 °FMild.7 mph88%30.35 "Hg10 mi
10:35 PM64 °FMild.9 mph88%30.34 "Hg10 mi
10:15 PM64 °FMild.7 mph94%30.34 "Hg10 mi
9:55 PM66 °FMild.5 mph83%30.33 "Hg10 mi
9:35 PM66 °FMild.5 mph83%30.33 "Hg10 mi
9:15 PM66 °FMild.9 mph83%30.34 "Hg10 mi
8:55 PM66 °FMild.5 mph83%30.32 "Hg10 mi
8:35 PM64 °FMild.3 mph88%30.30 "Hg10 mi
8:15 PM66 °FMild.5 mph83%30.28 "Hg10 mi
7:55 PM66 °FMild.7 mph83%30.26 "Hg10 mi
7:15 PM68 °FMild.13 mph83%30.26 "Hg10 mi
6:55 PM68 °FMild.12 mph83%30.26 "Hg10 mi
6:35 PM70 °FMild.16 mph78%30.25 "Hg10 mi
6:15 PM70 °FMild.12 mph78%30.25 "Hg10 mi
5:55 PM72 °FMild.17 mph73%30.24 "Hg10 mi
5:35 PM70 °FMild.15 mph83%30.23 "Hg10 mi
5:15 PM72 °FMild.16 mph78%30.24 "Hg10 mi
4:55 PM72 °FMild.18 mph78%30.24 "Hg10 mi
4:35 PM77 °FWarm.22 mph57%30.23 "Hg10 mi
4:15 PM79 °FWarm.14 mph54%30.23 "Hg10 mi
3:55 PM79 °FWarm.14 mph51%30.23 "Hg10 mi
3:35 PM79 °FWarm.12 mph54%30.24 "Hg10 mi
3:15 PM79 °FWarm.14 mph54%30.24 "Hg10 mi
2:55 PM79 °FWarm.16 mph54%30.25 "Hg10 mi
2:35 PM79 °FWarm.15 mph54%30.25 "Hg10 mi
2:15 PM79 °FWarm.14 mph54%30.26 "Hg10 mi
1:55 PM81 °FWarm.16 mph54%30.26 "Hg10 mi
1:35 PM81 °FWarm.17 mph54%30.27 "Hg10 mi
12:55 PM79 °FWarm.16 mph58%30.29 "Hg10 mi
12:35 PM77 °FWarm.14 mph61%30.29 "Hg10 mi
12:15 PM79 °FWarm.13 mph58%30.29 "Hg10 mi
11:55 AM77 °FWarm.12 mph61%30.29 "Hg10 mi
11:35 AM75 °FMild.12 mph65%30.30 "Hg10 mi
11:15 AM73 °FMild.12 mph69%30.30 "Hg10 mi
10:55 AM73 °FMild.12 mph69%30.30 "Hg10 mi
10:35 AM73 °FMild.14 mph69%30.30 "Hg10 mi
10:15 AM72 °FMild.13 mph78%30.30 "Hg10 mi
9:55 AM70 °FMild.14 mph83%30.30 "Hg10 mi
9:35 AM68 °FMild.13 mph88%30.31 "Hg10 mi
9:15 AM66 °FMild.12 mph94%30.30 "Hg10 mi
Weather by CustomWeather, © 2014

See weather overviewHow to use our weather pages